EW1978 Dubai AE current weather conditions

sailwx.info

Wind from 191

Air temperature 9.4° C
Dewpoint 2.5° C

Last reported at 2020-Sep-26 16:46 UTC.
Time now 2020-Sep-26 17:30 UTC

Location: N 25°09' E 055°19'.
View on Google Maps.

See reports from other nearby stations

  
Tides and Currents Weather Stations Pressure Air Temp Water Temp Dewpoint Dewpoint Depression Visibility Wind Speed Wind Dir Waves Ship Positions
date/time (UTC)wind fromknots sea level pressurealtimeterstation pressurevisibilityair tempwater tempwave heightnotes
2020-Sep-26 17:00 205 10.0
2020-Sep-26 16:46 191 9.4
2020-Sep-26 16:31 207 9.4
2020-Sep-26 16:16 263 9.4
2020-Sep-26 16:01 244 9.4
2020-Sep-26 15:46 196 8.9
2020-Sep-26 15:31 213 8.3
2020-Sep-26 15:15 175 8.3
2020-Sep-26 15:00 197 8.9
2020-Sep-26 14:46 256 9.4
2020-Sep-26 14:30 181 8.9
2020-Sep-26 14:16 186 8.9
2020-Sep-26 14:00 164 7.8
2020-Sep-26 13:45 179 7.8
2020-Sep-26 13:30 179 7.8
2020-Sep-26 13:15 179 7.8
2020-Sep-26 13:00 179 7.8
2020-Sep-26 12:45 179 7.8
2020-Sep-26 12:30 179 8.3
2020-Sep-26 12:16 179 8.9
2020-Sep-26 12:00 179 8.9
2020-Sep-26 11:46 179 9.4
2020-Sep-26 11:32 179 10.0
2020-Sep-26 11:17 259 10.6
2020-Sep-26 11:01 212 10.0
2020-Sep-26 10:45 243 10.0
2020-Sep-26 10:30 243 11.1
2020-Sep-26 10:16 263 11.7
2020-Sep-26 10:00 249 12.2
2020-Sep-26 09:46 203 12.2
2020-Sep-26 09:30 279 12.8
2020-Sep-26 09:15 252 13.3
2020-Sep-26 09:00 271 13.9
2020-Sep-26 08:47 191 13.9
2020-Sep-26 08:31 201 14.4
2020-Sep-26 08:16 166 14.4
2020-Sep-26 08:00 138 15.0
2020-Sep-26 07:45 187 0 gusting 7 15.0
2020-Sep-26 07:30 272 15.6
2020-Sep-26 07:16 207 16.1
2020-Sep-26 07:00 163 16.7
2020-Sep-26 06:45 146 17.2
2020-Sep-26 06:30 175 17.2
2020-Sep-26 06:15 161 0 gusting 10 17.2
2020-Sep-26 06:00 222 17.2
2020-Sep-26 05:45 174 17.2
2020-Sep-26 05:32 145 17.8
2020-Sep-26 05:16 189 17.8
2020-Sep-26 05:01 152 17.8
2020-Sep-26 04:46 164 17.8
2020-Sep-26 04:31 189 17.8
2020-Sep-26 04:16 158 17.8
2020-Sep-26 04:01 161 2 gusting 13 17.8
2020-Sep-26 03:46 209 6 gusting 17 17.2
2020-Sep-26 03:30 154 17.2
2020-Sep-26 03:15 184 4 gusting 21 17.2
2020-Sep-26 03:02 207 17.2
2020-Sep-26 02:46 157 17.2
2020-Sep-26 02:31 177 3 16.7
2020-Sep-26 02:15 179 16.7
2020-Sep-26 02:00 209 16.1
2020-Sep-26 01:45 249 16.1
2020-Sep-26 01:30 206 9 gusting 22 16.1
2020-Sep-26 01:15 178 15.6
2020-Sep-26 01:00 230 15.6
2020-Sep-26 00:45 205 15.0
2020-Sep-26 00:30 161 4 gusting 18 14.4
2020-Sep-26 00:17 161 14.4
2020-Sep-26 00:02 214 5 gusting 22 14.4
2020-Sep-25 23:46 220 13.9
2020-Sep-25 23:30 197 0 gusting 21 13.9
2020-Sep-25 23:15 161 13.9
2020-Sep-25 23:00 195 13.3
2020-Sep-25 22:45 188 8 gusting 20 13.3
2020-Sep-25 22:30 178 12.8
2020-Sep-25 22:15 211 12.2
2020-Sep-25 22:00 153 9 gusting 19 12.2
2020-Sep-25 21:46 220 11.7
2020-Sep-25 21:45 220 11.7
2020-Sep-25 21:31 220 2 gusting 13 11.7
2020-Sep-25 21:16 179 11.1
2020-Sep-25 21:00 180 11.1
2020-Sep-25 20:46 136 0 gusting 12 10.6
2020-Sep-25 20:31 249 10.6
2020-Sep-25 20:15 184 10.6
2020-Sep-25 20:00 200 10.0
2020-Sep-25 19:31 168 5 gusting 18 10.6
2020-Sep-25 19:17 192 2 gusting 17 10.6
2020-Sep-25 19:02 243 10.0
2020-Sep-25 18:46 186 10.0
2020-Sep-25 18:32 177 10.0
2020-Sep-25 18:16 211 10.0
2020-Sep-25 18:03 201 10.0
2020-Sep-25 17:46 227 10.0
2020-Sep-25 17:31 218 10.6
2020-Sep-25 17:15 270 2 gusting 12 10.0
2020-Sep-25 17:00 222 10.6
2020-Sep-25 16:45 206 13 gusting 26 10.6
2020-Sep-25 16:30 211 10.6
2020-Sep-25 16:15 218 10.6
2020-Sep-25 16:00 239 10.6
2020-Sep-25 15:45 254 1 gusting 19 10.6
2020-Sep-25 15:30 194 10.6
2020-Sep-25 15:17 253 10.0
2020-Sep-25 15:01 245 10.0
2020-Sep-25 14:49 288 10.0
2020-Sep-25 14:31 186 10.0
2020-Sep-25 14:17 219 10.0
2020-Sep-25 14:03 202 10.0
2020-Sep-25 13:46 197 10.0
2020-Sep-25 13:31 246 10.0
2020-Sep-25 13:15 195 10.0
2020-Sep-25 13:00 174 10.0
2020-Sep-25 12:45 232 10.0
2020-Sep-25 12:30 234 10.0
2020-Sep-25 12:15 305 10.0
2020-Sep-25 12:01 241 10.0
2020-Sep-25 11:46 222 10.6
2020-Sep-25 11:30 249 6 gusting 17 10.6
2020-Sep-25 11:15 266 10.6
2020-Sep-25 11:00 184 10.6
2020-Sep-25 10:45 203 10.6
2020-Sep-25 10:30 197 11.1
2020-Sep-25 10:15 240 10.6
2020-Sep-25 10:00 284 10.6
2020-Sep-25 09:45 289 1 gusting 7 10.6
2020-Sep-25 09:30 280 10.6
2020-Sep-25 09:15 199 4 gusting 13 11.1
2020-Sep-25 09:01 229 3 gusting 17 11.1
2020-Sep-25 08:46 170 3 gusting 17 11.7
2020-Sep-25 08:30 182 13.3
2020-Sep-25 08:15 230 13.9
2020-Sep-25 08:00 216 14.4
2020-Sep-25 07:46 220 13.9
2020-Sep-25 07:31 184 13.9
2020-Sep-25 07:17 193 16 gusting 34 17.2
2020-Sep-25 07:01 253 8 gusting 16 22.8
2020-Sep-25 06:46 239 22.8
2020-Sep-25 06:31 297 2 gusting 10 22.8
2020-Sep-25 06:16 207 23.3
2020-Sep-25 06:01 268 6 gusting 15 22.8
2020-Sep-25 05:45 305 23.3
2020-Sep-25 05:30 345 6 gusting 16 23.3
2020-Sep-25 05:15 207 24.4
2020-Sep-25 05:00 250 8 gusting 16 23.9
2020-Sep-25 04:45 255 6 gusting 22 23.9
2020-Sep-25 04:30 238 22.8
2020-Sep-25 04:15 311 23.3
2020-Sep-25 04:00 337 22.8
2020-Sep-25 03:47 212 22.2
2020-Sep-25 03:31 234 22.2
2020-Sep-25 03:15 232 3 gusting 10 22.8
2020-Sep-25 03:00 234 22.8
2020-Sep-25 02:45 174 22.8
2020-Sep-25 02:30 244 21.7
2020-Sep-25 02:15 216 21.1
2020-Sep-25 02:02 213 21.7
2020-Sep-25 01:46 257 21.7
2020-Sep-25 01:31 196 0 gusting 6 22.2
2020-Sep-25 01:17 234 6 gusting 15 22.8
2020-Sep-25 01:01 276 3 gusting 12 22.8
2020-Sep-25 00:46 210 22.2
2020-Sep-25 00:30 270 22.2
2020-Sep-25 00:15 251 21.7
2020-Sep-25 00:00 247 5 gusting 17 21.1
2020-Sep-24 23:45 257 20.6
2020-Sep-24 23:31 243 20.0
2020-Sep-24 23:15 295 20.0
2020-Sep-24 23:00 242 19.4
2020-Sep-24 22:46 248 18.9
2020-Sep-24 22:30 265 18.9
2020-Sep-24 22:16 303 18.3
2020-Sep-24 22:00 263 17.8
2020-Sep-24 21:45 257 17.2
2020-Sep-24 21:30 301 16.1
2020-Sep-24 21:17 322 15.0
2020-Sep-24 21:02 284 13.9
2020-Sep-24 20:46 244 12.8
2020-Sep-24 20:32 190 11.1
2020-Sep-24 20:17 190 10.0
2020-Sep-24 20:00 190 10.0
2020-Sep-24 19:45 190 10.0
2020-Sep-24 19:30 190 10.0
2020-Sep-24 19:15 190 9.4
2020-Sep-24 19:00 190 9.4
2020-Sep-24 18:47 190 9.4
2020-Sep-24 18:31 190 8.9
2020-Sep-24 18:16 190 8.3
2020-Sep-24 18:02 190 8.3
2020-Sep-24 17:46 190 8.9
2020-Sep-24 17:31 190 8.9
2020-Sep-24 17:15 190 8.3
2020-Sep-24 17:01 190 8.3